Time,TemperatureF,DewpointF,PressureIn,WindDirection,WindDirectionDegrees,WindSpeedMPH,WindSpeedGustMPH,Humidity,HourlyPrecipIn,Conditions,Clouds,dailyrainin,SoftwareType,DateUTC
2013-06-12 00:00:00,44.3,34.0,30.11,East,90,3.8,3.8,67,0.00,,,0.00,WUHU216HW,2013-06-12 07:00:00,
2013-06-12 00:05:00,44.3,34.0,30.11,East,90,3.8,3.8,67,0.00,,,0.00,WUHU216HW,2013-06-12 07:05:00,
2013-06-12 01:05:00,44.3,34.0,30.11,East,90,0.7,0.7,67,0.00,,,0.00,WUHU216HW,2013-06-12 08:05:00,
2013-06-12 02:05:00,41.6,34.2,30.11,ENE,68,1.8,1.8,75,0.00,,,0.00,WUHU216HW,2013-06-12 09:05:00,
2013-06-12 03:05:00,40.9,34.8,30.11,ENE,68,1.1,1.1,79,0.00,,,0.00,WUHU216HW,2013-06-12 10:05:00,
2013-06-12 04:05:00,39.1,32.8,30.11,ENE,68,0.0,0.0,78,0.00,,,0.00,WUHU216HW,2013-06-12 11:05:00,
2013-06-12 05:05:00,37.6,31.4,30.12,ENE,68,0.4,0.4,78,0.00,,,0.00,WUHU216HW,2013-06-12 12:05:00,
2013-06-12 06:05:00,38.2,31.6,30.12,ENE,68,0.0,0.0,77,0.00,,,0.00,WUHU216HW,2013-06-12 13:05:00,
2013-06-12 07:05:00,40.9,33.1,30.13,ENE,68,0.9,0.9,74,0.00,,,0.00,WUHU216HW,2013-06-12 14:05:00,
2013-06-12 08:05:00,46.1,36.6,30.12,South,180,0.9,0.9,69,0.00,,,0.00,WUHU216HW,2013-06-12 15:05:00,
2013-06-12 09:05:00,52.9,38.5,30.12,SE,135,4.7,4.7,58,0.00,,,0.00,WUHU216HW,2013-06-12 16:05:00,
2013-06-12 10:05:00,55.4,37.1,30.11,NW,315,2.7,2.7,50,0.00,,,0.00,WUHU216HW,2013-06-12 17:05:00,
2013-06-12 11:05:00,58.1,36.3,30.11,West,270,6.7,6.7,44,0.00,,,0.00,WUHU216HW,2013-06-12 18:05:00,
2013-06-12 12:05:00,60.8,36.9,30.10,North,0,5.1,5.1,41,0.00,,,0.00,WUHU216HW,2013-06-12 19:05:00,
2013-06-12 13:05:00,62.3,36.2,30.09,NNE,23,1.3,1.3,38,0.00,,,0.00,WUHU216HW,2013-06-12 20:05:00,
2013-06-12 14:05:00,64.4,36.7,30.08,NW,315,4.5,4.5,36,0.00,,,0.00,WUHU216HW,2013-06-12 21:05:00,
2013-06-12 15:05:00,64.3,36.5,30.08,North,0,5.8,5.8,36,0.00,,,0.00,WUHU216HW,2013-06-12 22:05:00,
2013-06-12 16:05:00,62.3,36.9,30.08,North,0,4.5,4.5,39,0.00,,,0.00,WUHU216HW,2013-06-12 23:05:00,
2013-06-12 17:05:00,61.6,37.0,30.09,North,0,8.7,8.7,40,0.00,,,0.00,WUHU216HW,2013-06-13 00:05:00,
2013-06-12 18:05:00,65.5,37.0,30.08,North,0,4.7,4.7,35,0.00,,,0.00,WUHU216HW,2013-06-13 01:05:00,
2013-06-12 19:05:00,61.0,35.1,30.09,WNW,293,6.0,6.0,38,0.00,,,0.00,WUHU216HW,2013-06-13 02:05:00,
2013-06-12 20:05:00,56.5,35.9,30.11,West,270,5.1,5.1,46,0.00,,,0.00,WUHU216HW,2013-06-13 03:05:00,
2013-06-12 21:05:00,53.3,34.6,30.12,West,270,7.8,7.8,49,0.00,,,0.00,WUHU216HW,2013-06-13 04:05:00,
2013-06-12 23:05:00,49.5,36.3,30.14,WSW,248,4.7,4.7,60,0.00,,,0.00,WUHU216HW,2013-06-13 06:05:00,